Location: New Frontier Mobile Home Park
(32.8448°N, 116.9675°W)
Time: 21:06:45
(UTC+00:00)

Meteor 2-3 Rocket - Pass Details

Date: 14 July 2020
Orbit: 843 x 884 km, 81.2° (Epoch: 13 August)

Event Time Altitude Azimuth Distance (km) Brightness Sun altitude
Exits shadow 06:46:55 52° 330° (NNW) 1,071 4.4 -33.3°
Drops below altitude 10° 06:51:25 10° 1° (N) 2,520 6.9 -33.6°
Sets 06:53:55 0° 4° (N) 3,467 7.8 -33.7°
